| time (UTC) | temp C | wind direction | speed KPH | gust KPH | rain 1hr cm | rain 24hr cm | rain mn cm | humidity % | barometer mb |
| 20260504081559 | 2 | 155 | 1.6 | 8.0 | 0.00 | 0.00 | 0.00 | 78 | 1012.7 |
| 20260504044533 | 6 | 159 | 0.0 | 3.2 | 0.00 | 0.00 | 0.00 | 70 | 1012.7 |
| 20260504043023 | 7 | 159 | 0.0 | 4.8 | 0.00 | 0.00 | 0.00 | 69 | 1012.7 |
| 20260504041521 | 7 | 159 | 0.0 | 4.8 | 0.00 | 0.00 | 0.00 | 69 | 1012.7 |
| 20260504040020 | 7 | 159 | 0.0 | 3.2 | 0.00 | 0.00 | 0.00 | 68 | 1012.7 |
| 20260504034520 | 7 | 159 | 0.0 | 1.6 | 0.00 | 0.00 | 0.00 | 67 | 1012.7 |
| 20260504033017 | 8 | 159 | 0.0 | 3.2 | 0.00 | 0.00 | 0.00 | 65 | 1012.7 |
| 20260504031518 | 8 | 159 | 0.0 | 3.2 | 0.00 | 0.00 | 0.00 | 64 | 1012.7 |
| 20260504024517 | 9 | 159 | 0.0 | 0.0 | 0.00 | 0.00 | 0.00 | 62 | 1012.9 |
| 20260504023016 | 9 | 159 | 0.0 | 4.8 | 0.00 | 0.00 | 0.00 | 61 | 1013.0 |
| 20260504021516 | 10 | 159 | 0.0 | 3.2 | 0.00 | 0.00 | 0.00 | 60 | 1013.0 |
| 20260504020015 | 10 | 159 | 0.0 | 3.2 | 0.00 | 0.00 | 0.00 | 60 | 1013.0 |
| 20260504014515 | 10 | 159 | 0.0 | 1.6 | 0.00 | 0.00 | 0.00 | 61 | 1012.9 |
| 20260504013023 | 10 | 159 | 0.0 | 3.2 | 0.00 | 0.00 | 0.00 | 60 | 1012.8 |
| 20260504011514 | 11 | 159 | 0.0 | 3.2 | 0.00 | 0.00 | 0.00 | 59 | 1012.6 |
| 20260504010013 | 11 | 159 | 0.0 | 1.6 | 0.00 | 0.00 | 0.00 | 58 | 1012.5 |
| 20260504004513 | 11 | 159 | 0.0 | 3.2 | 0.00 | 0.00 | 0.00 | 56 | 1012.3 |
| 20260504003019 | 11 | 159 | 0.0 | 3.2 | 0.00 | 0.00 | 0.00 | 55 | 1012.2 |
| 20260504001511 | 11 | 159 | 0.0 | 4.8 | 0.00 | 0.00 | 0.00 | 53 | 1012.0 |
| 20260504000009 | 12 | 159 | 1.6 | 8.0 | 0.00 | 0.00 | 0.00 | 50 | 1011.9 |
| 20260503234509 | 12 | 159 | 1.6 | 8.0 | 0.00 | 0.00 | 0.00 | 44 | 1011.8 |
| 20260503233009 | 13 | 159 | 8.0 | 12.9 | 0.00 | 0.00 | 0.00 | 40 | 1011.7 |
| 20260503231608 | 13 | 140 | 1.6 | 4.8 | 0.00 | 0.00 | 0.00 | 40 | 1011.7 |
| 20260503230008 | 13 | 140 | 1.6 | 6.4 | 0.00 | 0.00 | 0.00 | 40 | 1011.7 |
| 20260503224506 | 14 | 144 | 1.6 | 4.8 | 0.00 | 0.00 | 0.00 | 40 | 1011.8 |
| 20260503223006 | 14 | 273 | 0.0 | 4.8 | 0.00 | 0.00 | 0.00 | 38 | 1011.8 |
| 20260503221507 | 15 | 273 | 0.0 | 4.8 | 0.00 | 0.00 | 0.00 | 37 | 1011.8 |
| 20260503220009 | 14 | 276 | 1.6 | 6.4 | 0.00 | 0.00 | 0.00 | 37 | 1012.0 |
| 20260503214501 | 14 | 5 | 4.8 | 9.7 | 0.00 | 0.00 | 0.00 | 38 | 1012.1 |
| 20260503213059 | 13 | 294 | 3.2 | 19.3 | 0.00 | 0.00 | 0.00 | 39 | 1012.1 |
| 20260503211603 | 13 | 233 | 8.0 | 17.7 | 0.00 | 0.00 | 0.00 | 39 | 1012.2 |
| 20260503210056 | 13 | 214 | 16.1 | 30.6 | 0.00 | 0.00 | 0.00 | 40 | 1012.3 |
| 20260503204557 | 12 | 284 | 14.5 | 30.6 | 0.00 | 0.00 | 0.00 | 42 | 1012.5 |
| 20260503203101 | 12 | 281 | 9.7 | 25.7 | 0.00 | 0.00 | 0.00 | 39 | 1012.3 |
| 20260503201600 | 13 | 294 | 6.4 | 22.5 | 0.00 | 0.00 | 0.00 | 37 | 1012.3 |
| 20260503200054 | 13 | 345 | 9.7 | 25.7 | 0.00 | 0.00 | 0.00 | 36 | 1012.2 |
| 20260503194655 | 13 | 271 | 11.3 | 20.9 | 0.00 | 0.00 | 0.00 | 34 | 1012.4 |
| 20260503193051 | 13 | 285 | 9.7 | 19.3 | 0.00 | 0.00 | 0.00 | 34 | 1012.5 |
| 20260503191551 | 13 | 290 | 6.4 | 17.7 | 0.00 | 0.00 | 0.00 | 33 | 1012.5 |
| 20260503190053 | 13 | 178 | 4.8 | 24.1 | 0.00 | 0.00 | 0.00 | 33 | 1012.6 |
| 20260503184603 | 13 | 311 | 4.8 | 25.7 | 0.00 | 0.00 | 0.00 | 34 | 1012.8 |
| 20260503183049 | 12 | 263 | 4.8 | 19.3 | 0.00 | 0.00 | 0.00 | 33 | 1013.0 |
| 20260503181546 | 13 | 289 | 6.4 | 17.7 | 0.00 | 0.00 | 0.00 | 33 | 1013.3 |
| 20260503180040 | 12 | 285 | 12.9 | 20.9 | 0.00 | 0.00 | 0.00 | 33 | 1013.5 |
| 20260503174534 | 11 | 349 | 8.0 | 20.9 | 0.00 | 0.00 | 0.00 | 38 | 1013.7 |
| 20260503173035 | 11 | 51 | 3.2 | 24.1 | 0.00 | 0.00 | 0.00 | 37 | 1014.0 |
| 20260503171540 | 11 | 176 | 6.4 | 25.7 | 0.00 | 0.00 | 0.00 | 36 | 1014.1 |